Time,TemperatureF,DewpointF,PressureIn,WindDirection,WindDirectionDegrees,WindSpeedMPH,WindSpeedGustMPH,Humidity,HourlyPrecipIn,Conditions,Clouds,dailyrainin,SoftwareType,DateUTC
2013-09-09 00:02:00,54.8,47.0,29.78,WSW,247,3.0,4.0,75,0.00,,---,0.00,VWS V14.01,2013-09-09 06:02:00,
2013-09-09 00:07:00,54.6,46.8,29.78,WSW,247,2.0,4.0,75,0.00,,---,0.00,VWS V14.01,2013-09-09 06:07:00,
2013-09-09 00:12:00,54.5,47.1,29.78,WSW,256,4.0,4.0,76,0.00,,---,0.00,VWS V14.01,2013-09-09 06:12:00,
2013-09-09 00:17:00,54.3,47.6,29.78,SW,221,16.0,16.0,78,0.00,,---,0.00,VWS V14.01,2013-09-09 06:17:00,
2013-09-09 00:22:00,54.1,48.1,29.78,SSW,207,8.0,9.0,80,0.00,,---,0.00,VWS V14.01,2013-09-09 06:22:00,
2013-09-09 00:27:00,54.0,48.0,29.77,SW,235,0.0,1.0,80,0.00,,---,0.00,VWS V14.01,2013-09-09 06:27:00,
2013-09-09 00:32:00,53.8,47.8,29.77,SW,235,0.0,1.0,80,0.00,,---,0.00,VWS V14.01,2013-09-09 06:32:00,
2013-09-09 00:37:00,53.7,47.7,29.77,WSW,251,9.0,9.0,80,0.00,,---,0.00,VWS V14.01,2013-09-09 06:37:00,
2013-09-09 00:42:00,53.6,47.6,29.77,WSW,250,3.0,3.0,80,0.00,,---,0.00,VWS V14.01,2013-09-09 06:42:00,
2013-09-09 00:47:00,53.4,47.1,29.77,WSW,250,0.0,1.0,79,0.00,,---,0.00,VWS V14.01,2013-09-09 06:47:00,
2013-09-09 00:52:00,53.0,47.3,29.77,WSW,250,0.0,0.0,81,0.00,,---,0.00,VWS V14.01,2013-09-09 06:52:00,
2013-09-09 00:57:00,52.8,47.1,29.77,WSW,250,0.0,0.0,81,0.00,,---,0.00,VWS V14.01,2013-09-09 06:57:00,
2013-09-09 01:02:00,52.6,47.3,29.77,WSW,242,4.0,5.0,82,0.00,,---,0.00,VWS V14.01,2013-09-09 07:02:00,
2013-09-09 01:07:00,52.2,46.9,29.77,WSW,242,0.0,0.0,82,0.00,,---,0.00,VWS V14.01,2013-09-09 07:07:00,
2013-09-09 01:12:00,51.8,46.5,29.77,WSW,242,2.0,3.0,82,0.00,,---,0.00,VWS V14.01,2013-09-09 07:12:00,
2013-09-09 01:17:00,51.3,46.3,29.77,WSW,242,4.0,4.0,83,0.00,,---,0.00,VWS V14.01,2013-09-09 07:17:00,
2013-09-09 01:22:00,50.6,45.6,29.77,WSW,247,3.0,4.0,83,0.00,,---,0.00,VWS V14.01,2013-09-09 07:22:00,
2013-09-09 01:27:00,50.2,45.6,29.77,WSW,247,0.0,2.0,84,0.00,,---,0.00,VWS V14.01,2013-09-09 07:27:00,
2013-09-09 01:33:00,49.9,45.3,29.78,WSW,247,0.0,2.0,84,0.00,,---,0.00,VWS V14.01,2013-09-09 07:33:00,
2013-09-09 01:37:00,49.4,45.1,29.78,WSW,247,0.0,0.0,85,0.00,,---,0.00,VWS V14.01,2013-09-09 07:37:00,
2013-09-09 01:42:00,49.0,44.7,29.77,WSW,247,4.0,5.0,85,0.00,,---,0.00,VWS V14.01,2013-09-09 07:42:00,
2013-09-09 01:48:00,48.2,43.9,29.77,WSW,248,5.0,5.0,85,0.00,,---,0.00,VWS V14.01,2013-09-09 07:48:00,
2013-09-09 01:53:00,47.8,44.1,29.78,WSW,249,3.0,3.0,87,0.00,,---,0.00,VWS V14.01,2013-09-09 07:53:00,
2013-09-09 01:58:00,47.6,43.9,29.78,WSW,250,2.0,4.0,87,0.00,,---,0.00,VWS V14.01,2013-09-09 07:58:00,
2013-09-09 02:03:00,47.2,43.5,29.78,WSW,251,4.0,5.0,87,0.00,,---,0.00,VWS V14.01,2013-09-09 08:03:00,
2013-09-09 02:08:00,46.8,43.1,29.78,WNW,289,3.0,5.0,87,0.00,,---,0.00,VWS V14.01,2013-09-09 08:08:00,
2013-09-09 02:13:00,46.4,43.0,29.78,WNW,289,4.0,4.0,88,0.00,,---,0.00,VWS V14.01,2013-09-09 08:13:00,
2013-09-09 02:18:00,46.1,42.8,29.78,WNW,289,0.0,1.0,88,0.00,,---,0.00,VWS V14.01,2013-09-09 08:18:00,
2013-09-09 02:23:00,45.8,42.5,29.79,WNW,289,4.0,6.0,88,0.00,,---,0.00,VWS V14.01,2013-09-09 08:23:00,
2013-09-09 02:28:00,45.6,42.5,29.79,WNW,289,4.0,4.0,89,0.00,,---,0.00,VWS V14.01,2013-09-09 08:28:00,
2013-09-09 02:33:00,45.4,42.3,29.79,WNW,289,6.0,6.0,89,0.00,,---,0.00,VWS V14.01,2013-09-09 08:33:00,
2013-09-09 02:38:00,45.3,42.3,29.79,WNW,290,4.0,6.0,89,0.00,,---,0.00,VWS V14.01,2013-09-09 08:38:00,
2013-09-09 02:43:00,45.3,42.3,29.79,WNW,290,4.0,4.0,89,0.00,,---,0.00,VWS V14.01,2013-09-09 08:43:00,
2013-09-09 02:48:00,45.2,42.5,29.79,WNW,290,4.0,4.0,90,0.00,,---,0.00,VWS V14.01,2013-09-09 08:48:00,
2013-09-09 02:53:00,45.0,42.2,29.78,WNW,290,4.0,4.0,90,0.00,,---,0.00,VWS V14.01,2013-09-09 08:53:00,
2013-09-09 02:58:00,45.0,42.2,29.78,WNW,290,3.0,3.0,90,0.00,,---,0.00,VWS V14.01,2013-09-09 08:58:00,
2013-09-09 03:03:00,45.0,42.5,29.79,WNW,290,3.0,4.0,91,0.00,,---,0.00,VWS V14.01,2013-09-09 09:03:00,
2013-09-09 03:08:00,45.1,42.6,29.79,WNW,290,2.0,3.0,91,0.00,,---,0.00,VWS V14.01,2013-09-09 09:08:00,
2013-09-09 03:13:00,45.1,42.6,29.79,WNW,290,4.0,5.0,91,0.00,,---,0.00,VWS V14.01,2013-09-09 09:13:00,
2013-09-09 03:18:00,45.1,42.3,29.78,WNW,290,5.0,5.0,90,0.00,,---,0.00,VWS V14.01,2013-09-09 09:18:00,
2013-09-09 03:23:00,45.2,42.7,29.78,WNW,290,0.0,4.0,91,0.00,,---,0.00,VWS V14.01,2013-09-09 09:23:00,
2013-09-09 03:28:00,45.2,42.5,29.78,WNW,290,1.0,4.0,90,0.00,,---,0.00,VWS V14.01,2013-09-09 09:28:00,
2013-09-09 03:33:00,45.4,42.9,29.78,WNW,290,0.0,2.0,91,0.00,,---,0.00,VWS V14.01,2013-09-09 09:33:00,
2013-09-09 03:38:00,45.4,42.6,29.78,WNW,290,4.0,4.0,90,0.00,,---,0.00,VWS V14.01,2013-09-09 09:38:00,
2013-09-09 03:43:00,45.2,42.2,29.78,WNW,290,3.0,4.0,89,0.00,,---,0.00,VWS V14.01,2013-09-09 09:43:00,
2013-09-09 03:48:00,44.9,42.2,29.78,WNW,290,4.0,5.0,90,0.00,,---,0.00,VWS V14.01,2013-09-09 09:48:00,
2013-09-09 03:53:00,45.0,42.2,29.78,WNW,290,4.0,6.0,90,0.00,,---,0.00,VWS V14.01,2013-09-09 09:53:00,
2013-09-09 03:58:00,44.9,42.2,29.78,WNW,290,3.0,5.0,90,0.00,,---,0.00,VWS V14.01,2013-09-09 09:58:00,
2013-09-09 04:03:00,44.9,42.2,29.78,WNW,290,0.0,0.0,90,0.00,,---,0.00,VWS V14.01,2013-09-09 10:03:00,
2013-09-09 04:08:00,45.0,42.5,29.78,WNW,290,0.0,0.0,91,0.00,,---,0.00,VWS V14.01,2013-09-09 10:08:00,
2013-09-09 04:13:00,44.9,42.2,29.78,WNW,290,1.0,2.0,90,0.00,,---,0.00,VWS V14.01,2013-09-09 10:13:00,
2013-09-09 04:18:00,44.7,42.2,29.78,WNW,290,0.0,0.0,91,0.00,,---,0.00,VWS V14.01,2013-09-09 10:18:00,
2013-09-09 04:23:00,44.6,41.8,29.78,WNW,290,3.0,3.0,90,0.00,,---,0.00,VWS V14.01,2013-09-09 10:23:00,
2013-09-09 04:28:00,44.4,41.7,29.78,WNW,290,0.0,0.0,90,0.00,,---,0.00,VWS V14.01,2013-09-09 10:28:00,
2013-09-09 04:33:00,44.3,41.6,29.77,WNW,290,0.0,0.0,90,0.00,,---,0.00,VWS V14.01,2013-09-09 10:33:00,
2013-09-09 04:38:00,44.2,41.7,29.77,WNW,290,0.0,0.0,91,0.00,,---,0.00,VWS V14.01,2013-09-09 10:38:00,
2013-09-09 04:43:00,44.2,41.7,29.77,WNW,290,0.0,0.0,91,0.00,,---,0.00,VWS V14.01,2013-09-09 10:43:00,
2013-09-09 04:48:00,44.1,41.7,29.77,WNW,290,0.0,0.0,91,0.00,,---,0.00,VWS V14.01,2013-09-09 10:48:00,
2013-09-09 04:53:00,44.0,41.5,29.77,WNW,290,0.0,0.0,91,0.00,,---,0.00,VWS V14.01,2013-09-09 10:53:00,
2013-09-09 04:58:00,43.8,41.3,29.77,WNW,290,0.0,0.0,91,0.00,,---,0.00,VWS V14.01,2013-09-09 10:58:00,
2013-09-09 05:03:00,43.7,41.5,29.77,WNW,290,1.0,2.0,92,0.00,,---,0.00,VWS V14.01,2013-09-09 11:03:00,
2013-09-09 05:08:00,43.8,41.6,29.77,WNW,290,0.0,0.0,92,0.00,,---,0.00,VWS V14.01,2013-09-09 11:08:00,
2013-09-09 05:13:00,43.8,41.6,29.77,WNW,290,0.0,2.0,92,0.00,,---,0.00,VWS V14.01,2013-09-09 11:13:00,
2013-09-09 05:18:00,43.3,40.8,29.77,WNW,290,0.0,0.0,91,0.00,,---,0.00,VWS V14.01,2013-09-09 11:18:00,
2013-09-09 05:23:00,42.8,40.1,29.77,WNW,290,0.0,0.0,90,0.00,,---,0.00,VWS V14.01,2013-09-09 11:23:00,
2013-09-09 05:28:00,42.7,40.3,29.77,WNW,290,0.0,0.0,91,0.00,,---,0.00,VWS V14.01,2013-09-09 11:28:00,
2013-09-09 05:33:00,43.0,41.1,29.77,WNW,290,0.0,0.0,93,0.00,,---,0.00,VWS V14.01,2013-09-09 11:33:00,
2013-09-09 05:38:00,42.8,40.6,29.77,WNW,290,3.0,3.0,92,0.00,,---,0.00,VWS V14.01,2013-09-09 11:38:00,
2013-09-09 05:43:00,42.5,40.3,29.77,WNW,290,3.0,3.0,92,0.00,,---,0.00,VWS V14.01,2013-09-09 11:43:00,
2013-09-09 05:48:00,42.4,40.2,29.78,WNW,290,0.0,0.0,92,0.00,,---,0.00,VWS V14.01,2013-09-09 11:48:00,
2013-09-09 05:53:00,42.4,40.2,29.78,WNW,290,2.0,2.0,92,0.00,,---,0.00,VWS V14.01,2013-09-09 11:53:00,
2013-09-09 05:58:00,42.3,40.4,29.78,WNW,290,4.0,7.0,93,0.00,,---,0.00,VWS V14.01,2013-09-09 11:58:00,
2013-09-09 06:03:00,42.5,40.6,29.78,WNW,290,0.0,2.0,93,0.00,,---,0.00,VWS V14.01,2013-09-09 12:03:00,
2013-09-09 06:09:00,42.5,40.6,29.78,WNW,290,0.0,1.0,93,0.00,,---,0.00,VWS V14.01,2013-09-09 12:09:00,
2013-09-09 06:14:00,42.2,40.0,29.78,WNW,290,0.0,0.0,92,0.00,,---,0.00,VWS V14.01,2013-09-09 12:14:00,
2013-09-09 06:19:00,41.9,39.8,29.78,WNW,290,0.0,0.0,92,0.00,,---,0.00,VWS V14.01,2013-09-09 12:19:00,
2013-09-09 06:24:00,42.1,40.2,29.78,WNW,290,0.0,0.0,93,0.00,,---,0.00,VWS V14.01,2013-09-09 12:24:00,
2013-09-09 06:29:00,42.1,40.2,29.78,WNW,290,0.0,0.0,93,0.00,,---,0.00,VWS V14.01,2013-09-09 12:29:00,
2013-09-09 06:34:00,42.0,40.1,29.79,WNW,290,0.0,0.0,93,0.00,,---,0.00,VWS V14.01,2013-09-09 12:34:00,
2013-09-09 06:39:00,41.8,39.9,29.79,WNW,290,3.0,3.0,93,0.00,,---,0.00,VWS V14.01,2013-09-09 12:39:00,
2013-09-09 06:44:00,41.8,39.9,29.79,WNW,290,1.0,2.0,93,0.00,,---,0.00,VWS V14.01,2013-09-09 12:44:00,
2013-09-09 06:49:00,41.8,40.2,29.79,WNW,290,3.0,4.0,94,0.00,,---,0.00,VWS V14.01,2013-09-09 12:49:00,
2013-09-09 06:54:00,41.9,40.3,29.79,WNW,290,0.0,0.0,94,0.00,,---,0.00,VWS V14.01,2013-09-09 12:54:00,
2013-09-09 06:59:00,41.8,39.9,29.80,WNW,290,3.0,3.0,93,0.00,,---,0.00,VWS V14.01,2013-09-09 12:59:00,
2013-09-09 07:04:00,41.7,40.1,29.80,WNW,290,0.0,0.0,94,0.00,,---,0.00,VWS V14.01,2013-09-09 13:04:00,
2013-09-09 07:09:00,42.0,40.7,29.80,WNW,290,0.0,0.0,95,0.00,,---,0.00,VWS V14.01,2013-09-09 13:09:00,
2013-09-09 07:14:00,42.4,41.1,29.80,WNW,290,0.0,0.0,95,0.00,,---,0.00,VWS V14.01,2013-09-09 13:14:00,
2013-09-09 07:19:00,42.8,41.5,29.80,WNW,290,1.0,1.0,95,0.00,,---,0.00,VWS V14.01,2013-09-09 13:19:00,
2013-09-09 07:24:00,43.3,42.0,29.80,WNW,290,0.0,0.0,95,0.00,,---,0.00,VWS V14.01,2013-09-09 13:24:00,
2013-09-09 07:29:00,43.7,42.4,29.80,WNW,290,0.0,0.0,95,0.00,,---,0.00,VWS V14.01,2013-09-09 13:29:00,
2013-09-09 07:34:00,43.9,42.6,29.80,WNW,290,0.0,2.0,95,0.00,,---,0.00,VWS V14.01,2013-09-09 13:34:00,
2013-09-09 07:39:00,44.0,42.7,29.80,WNW,290,0.0,0.0,95,0.00,,---,0.00,VWS V14.01,2013-09-09 13:39:00,
2013-09-09 07:44:00,44.0,42.7,29.80,WNW,290,3.0,3.0,95,0.00,,---,0.00,VWS V14.01,2013-09-09 13:44:00,
2013-09-09 07:49:00,44.0,42.7,29.81,WNW,290,0.0,0.0,95,0.00,,---,0.00,VWS V14.01,2013-09-09 13:49:00,
2013-09-09 07:54:00,44.1,42.8,29.80,WNW,290,2.0,2.0,95,0.00,,---,0.00,VWS V14.01,2013-09-09 13:54:00,
2013-09-09 07:59:00,44.3,43.0,29.81,WNW,290,0.0,0.0,95,0.00,,---,0.00,VWS V14.01,2013-09-09 13:59:00,
2013-09-09 08:04:00,44.4,43.1,29.80,WNW,290,0.0,0.0,95,0.00,,---,0.00,VWS V14.01,2013-09-09 14:04:00,
2013-09-09 08:09:00,44.7,43.4,29.80,WNW,290,0.0,0.0,95,0.00,,---,0.00,VWS V14.01,2013-09-09 14:09:00,
2013-09-09 08:14:00,44.8,43.5,29.81,WNW,290,0.0,0.0,95,0.00,,---,0.00,VWS V14.01,2013-09-09 14:14:00,
2013-09-09 08:19:00,45.0,43.7,29.81,WNW,290,0.0,0.0,95,0.00,,---,0.00,VWS V14.01,2013-09-09 14:19:00,
2013-09-09 08:24:00,45.2,43.9,29.81,WNW,290,0.0,0.0,95,0.00,,---,0.00,VWS V14.01,2013-09-09 14:24:00,
2013-09-09 08:29:00,45.3,44.0,29.80,WNW,290,0.0,0.0,95,0.00,,---,0.00,VWS V14.01,2013-09-09 14:29:00,
2013-09-09 08:34:00,45.4,44.0,29.80,WNW,290,0.0,0.0,95,0.00,,---,0.00,VWS V14.01,2013-09-09 14:34:00,
2013-09-09 08:39:00,45.5,44.2,29.81,WNW,290,0.0,0.0,95,0.00,,---,0.00,VWS V14.01,2013-09-09 14:39:00,
2013-09-09 08:44:00,45.6,44.2,29.80,WNW,290,0.0,0.0,95,0.00,,---,0.00,VWS V14.01,2013-09-09 14:44:00,
2013-09-09 08:49:00,45.9,44.5,29.80,WNW,290,0.0,0.0,95,0.00,,---,0.00,VWS V14.01,2013-09-09 14:49:00,
2013-09-09 08:54:00,46.1,44.8,29.81,WNW,290,0.0,0.0,95,0.00,,---,0.00,VWS V14.01,2013-09-09 14:54:00,
2013-09-09 08:59:00,46.2,44.8,29.81,WNW,290,0.0,0.0,95,0.00,,---,0.00,VWS V14.01,2013-09-09 14:59:00,
2013-09-09 09:04:00,46.3,45.0,29.80,WNW,290,1.0,2.0,95,0.00,,---,0.00,VWS V14.01,2013-09-09 15:04:00,
2013-09-09 09:09:00,46.5,45.2,29.80,WNW,290,0.0,0.0,95,0.00,,---,0.00,VWS V14.01,2013-09-09 15:09:00,
2013-09-09 09:14:00,47.1,45.7,29.80,WNW,290,0.0,0.0,95,0.00,,---,0.00,VWS V14.01,2013-09-09 15:14:00,
2013-09-09 09:19:00,47.5,46.4,29.80,WNW,290,0.0,0.0,96,0.00,,---,0.00,VWS V14.01,2013-09-09 15:19:00,
2013-09-09 09:24:00,47.8,46.4,29.80,WNW,290,3.0,3.0,95,0.00,,---,0.00,VWS V14.01,2013-09-09 15:24:00,
2013-09-09 09:29:00,48.0,46.6,29.80,WNW,290,0.0,0.0,95,0.00,,---,0.00,VWS V14.01,2013-09-09 15:29:00,
2013-09-09 09:34:00,48.3,46.9,29.80,WNW,290,2.0,3.0,95,0.00,,---,0.00,VWS V14.01,2013-09-09 15:34:00,
2013-09-09 09:39:00,48.5,47.1,29.80,WNW,290,0.0,0.0,95,0.00,,---,0.00,VWS V14.01,2013-09-09 15:39:00,
2013-09-09 09:44:00,48.7,47.3,29.80,WNW,290,0.0,0.0,95,0.00,,---,0.00,VWS V14.01,2013-09-09 15:44:00,
2013-09-09 09:49:00,49.1,47.5,29.80,WNW,290,0.0,0.0,94,0.00,,---,0.00,VWS V14.01,2013-09-09 15:49:00,
2013-09-09 09:54:00,50.0,48.1,29.80,WNW,290,0.0,0.0,93,0.00,,---,0.00,VWS V14.01,2013-09-09 15:54:00,
2013-09-09 09:59:00,50.4,48.2,29.80,WNW,290,0.0,0.0,92,0.00,,---,0.00,VWS V14.01,2013-09-09 15:59:00,
2013-09-09 10:04:00,50.5,48.0,29.80,WNW,290,1.0,1.0,91,0.00,,---,0.00,VWS V14.01,2013-09-09 16:04:00,
2013-09-09 10:09:00,50.8,47.7,29.80,WNW,290,0.0,0.0,89,0.00,,---,0.00,VWS V14.01,2013-09-09 16:09:00,
2013-09-09 10:14:00,51.2,47.8,29.80,WNW,290,0.0,0.0,88,0.00,,---,0.00,VWS V14.01,2013-09-09 16:14:00,
2013-09-09 10:19:00,52.4,47.7,29.79,WNW,290,0.0,0.0,84,0.00,,---,0.00,VWS V14.01,2013-09-09 16:19:00,
2013-09-09 10:24:00,54.9,50.8,29.79,WNW,290,0.0,2.0,86,0.00,,---,0.00,VWS V14.01,2013-09-09 16:24:00,
2013-09-09 10:30:00,54.5,49.1,29.79,WNW,290,0.0,2.0,82,0.00,,---,0.00,VWS V14.01,2013-09-09 16:30:00,
2013-09-09 10:35:00,55.6,50.2,29.79,WNW,290,1.0,2.0,82,0.00,,---,0.00,VWS V14.01,2013-09-09 16:35:00,
2013-09-09 10:40:00,55.8,50.1,29.78,WNW,290,0.0,0.0,81,0.00,,---,0.00,VWS V14.01,2013-09-09 16:40:00,
2013-09-09 10:45:00,55.9,49.5,29.78,ESE,113,4.0,5.0,79,0.00,,---,0.00,VWS V14.01,2013-09-09 16:45:00,
2013-09-09 10:50:00,55.8,49.0,29.78,SSE,156,3.0,6.0,78,0.00,,---,0.00,VWS V14.01,2013-09-09 16:50:00,
2013-09-09 10:55:00,56.7,50.3,29.78,SSE,161,5.0,5.0,79,0.00,,---,0.00,VWS V14.01,2013-09-09 16:55:00,
2013-09-09 11:00:00,56.2,49.1,29.78,South,175,3.0,4.0,77,0.00,,---,0.00,VWS V14.01,2013-09-09 17:00:00,
2013-09-09 11:05:00,56.3,49.5,29.77,South,175,1.0,1.0,78,0.00,,---,0.00,VWS V14.01,2013-09-09 17:05:00,
2013-09-09 11:10:00,56.9,50.1,29.77,South,175,0.0,3.0,78,0.00,,---,0.00,VWS V14.01,2013-09-09 17:10:00,
2013-09-09 11:15:00,57.6,49.8,29.77,WSW,243,2.0,4.0,75,0.00,,---,0.00,VWS V14.01,2013-09-09 17:15:00,
2013-09-09 11:20:00,57.4,49.5,29.77,WSW,243,3.0,4.0,75,0.00,,---,0.00,VWS V14.01,2013-09-09 17:20:00,
2013-09-09 11:25:00,57.0,49.5,29.77,WSW,243,0.0,1.0,76,0.00,,---,0.00,VWS V14.01,2013-09-09 17:25:00,
2013-09-09 11:30:00,57.5,49.7,29.77,WSW,243,0.0,2.0,75,0.00,,---,0.00,VWS V14.01,2013-09-09 17:30:00,
2013-09-09 11:35:00,57.2,49.0,29.77,WSW,243,0.0,0.0,74,0.00,,---,0.00,VWS V14.01,2013-09-09 17:35:00,
2013-09-09 11:40:00,57.7,50.2,29.77,WSW,243,0.0,0.0,76,0.00,,---,0.00,VWS V14.01,2013-09-09 17:40:00,
2013-09-09 11:45:00,58.4,49.4,29.77,WSW,243,0.0,0.0,72,0.00,,---,0.00,VWS V14.01,2013-09-09 17:45:00,
2013-09-09 11:50:00,59.3,50.3,29.76,West,266,11.0,13.0,72,0.00,,---,0.00,VWS V14.01,2013-09-09 17:50:00,
2013-09-09 11:55:00,57.8,49.9,29.77,WNW,292,11.0,15.0,75,0.00,,---,0.00,VWS V14.01,2013-09-09 17:55:00,
2013-09-09 12:00:00,56.9,48.3,29.77,NW,318,10.0,13.0,73,0.00,,---,0.00,VWS V14.01,2013-09-09 18:00:00,
2013-09-09 12:05:00,57.1,49.6,29.77,NNW,329,8.0,8.0,76,0.00,,---,0.00,VWS V14.01,2013-09-09 18:05:00,
2013-09-09 12:10:00,56.8,48.6,29.77,NNW,333,6.0,6.0,74,0.00,,---,0.00,VWS V14.01,2013-09-09 18:10:00,
2013-09-09 12:15:00,56.8,49.7,29.77,NNW,338,5.0,5.0,77,0.00,,---,0.00,VWS V14.01,2013-09-09 18:15:00,
2013-09-09 12:20:00,57.0,48.4,29.77,NNW,339,3.0,5.0,73,0.00,,---,0.00,VWS V14.01,2013-09-09 18:20:00,
2013-09-09 12:25:00,57.3,48.4,29.76,NNW,344,4.0,7.0,72,0.00,,---,0.00,VWS V14.01,2013-09-09 18:25:00,
2013-09-09 12:30:00,58.0,49.8,29.77,NNW,344,2.0,3.0,74,0.00,,---,0.00,VWS V14.01,2013-09-09 18:30:00,
2013-09-09 12:35:00,58.6,51.1,29.77,WNW,300,3.0,3.0,76,0.00,,---,0.00,VWS V14.01,2013-09-09 18:35:00,
2013-09-09 12:40:00,58.4,50.2,29.76,West,271,9.0,9.0,74,0.00,,---,0.00,VWS V14.01,2013-09-09 18:40:00,
2013-09-09 12:45:00,58.1,50.2,29.77,WNW,294,7.0,7.0,75,0.00,,---,0.00,VWS V14.01,2013-09-09 18:45:00,
2013-09-09 12:50:00,57.9,50.4,29.77,West,277,5.0,8.0,76,0.00,,---,0.00,VWS V14.01,2013-09-09 18:50:00,
2013-09-09 12:55:00,58.8,50.9,29.77,WNW,292,6.0,6.0,75,0.00,,---,0.00,VWS V14.01,2013-09-09 18:55:00,
2013-09-09 13:00:00,59.0,51.5,29.76,WNW,292,7.0,7.0,76,0.00,,---,0.00,VWS V14.01,2013-09-09 19:00:00,
2013-09-09 13:05:00,58.9,50.3,29.76,West,281,9.0,10.0,73,0.00,,---,0.00,VWS V14.01,2013-09-09 19:05:00,
2013-09-09 13:10:00,58.9,50.6,29.76,NW,319,7.0,7.0,74,0.00,,---,0.00,VWS V14.01,2013-09-09 19:10:00,
2013-09-09 13:15:00,59.2,49.8,29.76,NW,325,6.0,8.0,71,0.00,,---,0.00,VWS V14.01,2013-09-09 19:15:00,
2013-09-09 13:20:00,60.1,49.9,29.76,NW,304,7.0,7.0,69,0.00,,---,0.00,VWS V14.01,2013-09-09 19:20:00,
2013-09-09 13:25:00,59.8,48.4,29.76,NW,315,4.0,4.0,66,0.00,,---,0.00,VWS V14.01,2013-09-09 19:25:00,
2013-09-09 13:30:00,59.7,47.1,29.76,WSW,257,7.0,7.0,63,0.00,,---,0.00,VWS V14.01,2013-09-09 19:30:00,
2013-09-09 13:35:00,60.1,48.3,29.76,WNW,284,5.0,5.0,65,0.00,,---,0.00,VWS V14.01,2013-09-09 19:35:00,
2013-09-09 13:40:00,59.6,48.2,29.76,SW,221,6.0,8.0,66,0.00,,---,0.00,VWS V14.01,2013-09-09 19:40:00,
2013-09-09 13:45:00,59.3,48.0,29.76,WSW,246,8.0,8.0,66,0.00,,---,0.00,VWS V14.01,2013-09-09 19:45:00,
2013-09-09 13:50:00,58.9,49.2,29.76,SW,235,5.0,6.0,70,0.00,,---,0.00,VWS V14.01,2013-09-09 19:50:00,
2013-09-09 13:55:00,58.8,49.4,29.76,WSW,254,6.0,7.0,71,0.00,,---,0.00,VWS V14.01,2013-09-09 19:55:00,
2013-09-09 14:00:00,58.7,48.2,29.76,WNW,295,10.0,11.0,68,0.00,,---,0.00,VWS V14.01,2013-09-09 20:00:00,
2013-09-09 14:05:00,58.2,48.1,29.77,WNW,283,6.0,8.0,69,0.01,,---,0.01,VWS V14.01,2013-09-09 20:05:00,
2013-09-09 14:10:00,57.0,49.2,29.77,WNW,285,3.0,4.0,75,0.01,,---,0.01,VWS V14.01,2013-09-09 20:10:00,
2013-09-09 14:15:00,56.5,49.0,29.77,WNW,285,4.0,4.0,76,0.01,,---,0.01,VWS V14.01,2013-09-09 20:15:00,
2013-09-09 14:20:00,56.1,47.9,29.77,WNW,284,2.0,2.0,74,0.01,,---,0.01,VWS V14.01,2013-09-09 20:20:00,
2013-09-09 14:25:00,56.5,48.3,29.77,WNW,285,4.0,5.0,74,0.01,,---,0.01,VWS V14.01,2013-09-09 20:25:00,
2013-09-09 14:30:00,56.6,49.5,29.77,WNW,285,1.0,1.0,77,0.01,,---,0.01,VWS V14.01,2013-09-09 20:30:00,
2013-09-09 14:35:00,56.3,49.9,29.77,WNW,284,2.0,4.0,79,0.01,,---,0.01,VWS V14.01,2013-09-09 20:35:00,
2013-09-09 14:40:00,56.3,49.2,29.78,WNW,283,3.0,7.0,77,0.01,,---,0.01,VWS V14.01,2013-09-09 20:40:00,
2013-09-09 14:46:00,56.0,49.6,29.78,WSW,246,8.0,11.0,79,0.01,,---,0.01,VWS V14.01,2013-09-09 20:46:00,
2013-09-09 14:51:00,55.7,49.3,29.78,WSW,246,8.0,8.0,79,0.01,,---,0.01,VWS V14.01,2013-09-09 20:51:00,
2013-09-09 14:56:00,55.2,49.2,29.77,WSW,245,3.0,5.0,80,0.01,,---,0.01,VWS V14.01,2013-09-09 20:56:00,
2013-09-09 15:01:00,54.8,49.7,29.77,WSW,245,4.0,5.0,83,0.02,,---,0.02,VWS V14.01,2013-09-09 21:01:00,
2013-09-09 15:06:00,55.0,49.9,29.77,WSW,246,4.0,4.0,83,0.01,,---,0.02,VWS V14.01,2013-09-09 21:06:00,
2013-09-09 15:11:00,56.1,51.0,29.76,WNW,294,8.0,9.0,83,0.01,,---,0.02,VWS V14.01,2013-09-09 21:11:00,
2013-09-09 15:16:00,56.3,50.2,29.76,NNW,334,5.0,8.0,80,0.01,,---,0.02,VWS V14.01,2013-09-09 21:16:00,
2013-09-09 15:21:00,56.7,49.9,29.76,NW,324,9.0,10.0,78,0.01,,---,0.02,VWS V14.01,2013-09-09 21:21:00,
2013-09-09 15:26:00,57.0,50.6,29.76,NW,323,7.0,7.0,79,0.01,,---,0.02,VWS V14.01,2013-09-09 21:26:00,
2013-09-09 15:31:00,57.9,51.1,29.76,West,259,10.0,11.0,78,0.01,,---,0.02,VWS V14.01,2013-09-09 21:31:00,
2013-09-09 15:36:00,58.0,50.5,29.76,WSW,257,7.0,11.0,76,0.01,,---,0.02,VWS V14.01,2013-09-09 21:36:00,
2013-09-09 15:41:00,58.0,50.8,29.76,WSW,252,9.0,9.0,77,0.01,,---,0.02,VWS V14.01,2013-09-09 21:41:00,
2013-09-09 15:46:00,57.5,49.7,29.76,WSW,257,6.0,10.0,75,0.01,,---,0.02,VWS V14.01,2013-09-09 21:46:00,
2013-09-09 15:51:00,57.2,48.3,29.76,West,263,10.0,10.0,72,0.01,,---,0.02,VWS V14.01,2013-09-09 21:51:00,
2013-09-09 15:56:00,57.3,48.0,29.77,West,262,7.0,10.0,71,0.01,,---,0.02,VWS V14.01,2013-09-09 21:56:00,
2013-09-09 16:01:00,58.0,49.4,29.77,West,262,5.0,6.0,73,0.00,,---,0.02,VWS V14.01,2013-09-09 22:01:00,
2013-09-09 16:06:00,59.5,48.2,29.77,West,262,5.0,5.0,66,0.00,,---,0.02,VWS V14.01,2013-09-09 22:06:00,
2013-09-09 16:11:00,58.6,47.7,29.77,West,262,2.0,5.0,67,0.00,,---,0.02,VWS V14.01,2013-09-09 22:11:00,
2013-09-09 16:16:00,58.1,47.6,29.77,West,262,0.0,0.0,68,0.00,,---,0.02,VWS V14.01,2013-09-09 22:16:00,
2013-09-09 16:21:00,58.1,48.0,29.77,West,262,0.0,1.0,69,0.00,,---,0.02,VWS V14.01,2013-09-09 22:21:00,
2013-09-09 16:26:00,57.8,48.8,29.76,West,262,3.0,3.0,72,0.00,,---,0.02,VWS V14.01,2013-09-09 22:26:00,
2013-09-09 16:31:00,57.3,48.7,29.76,West,263,4.0,7.0,73,0.00,,---,0.02,VWS V14.01,2013-09-09 22:31:00,
2013-09-09 16:36:00,57.1,47.8,29.77,West,263,0.0,0.0,71,0.00,,---,0.02,VWS V14.01,2013-09-09 22:36:00,
2013-09-09 16:41:00,57.5,49.3,29.77,West,263,1.0,1.0,74,0.00,,---,0.02,VWS V14.01,2013-09-09 22:41:00,
2013-09-09 16:46:00,57.7,49.1,29.78,SW,216,7.0,7.0,73,0.00,,---,0.02,VWS V14.01,2013-09-09 22:46:00,
2013-09-09 16:51:00,57.6,49.0,29.78,South,182,5.0,5.0,73,0.00,,---,0.02,VWS V14.01,2013-09-09 22:51:00,
2013-09-09 16:56:00,57.3,49.5,29.78,South,173,6.0,6.0,75,0.00,,---,0.02,VWS V14.01,2013-09-09 22:56:00,
2013-09-09 17:01:00,57.2,49.0,29.78,SE,136,6.0,6.0,74,0.00,,---,0.02,VWS V14.01,2013-09-09 23:01:00,
2013-09-09 17:06:00,57.0,49.9,29.78,ESE,120,4.0,4.0,77,0.00,,---,0.02,VWS V14.01,2013-09-09 23:06:00,
2013-09-09 17:11:00,56.6,50.2,29.78,SE,137,6.0,6.0,79,0.00,,---,0.02,VWS V14.01,2013-09-09 23:11:00,
2013-09-09 17:16:00,56.3,49.9,29.77,SE,142,3.0,4.0,79,0.00,,---,0.02,VWS V14.01,2013-09-09 23:16:00,
2013-09-09 17:21:00,56.2,50.1,29.78,SSE,154,5.0,6.0,80,0.00,,---,0.02,VWS V14.01,2013-09-09 23:21:00,
2013-09-09 17:26:00,56.1,50.4,29.77,SSE,154,0.0,0.0,81,0.00,,---,0.02,VWS V14.01,2013-09-09 23:26:00,
2013-09-09 17:31:00,56.0,49.9,29.77,SSE,154,0.0,0.0,80,0.00,,---,0.02,VWS V14.01,2013-09-09 23:31:00,
2013-09-09 17:36:00,56.1,50.0,29.77,SSE,154,0.0,0.0,80,0.00,,---,0.02,VWS V14.01,2013-09-09 23:36:00,
2013-09-09 17:41:00,56.1,49.3,29.77,SSE,154,0.0,0.0,78,0.00,,---,0.02,VWS V14.01,2013-09-09 23:41:00,
2013-09-09 17:46:00,56.1,49.3,29.77,SSE,154,0.0,0.0,78,0.00,,---,0.02,VWS V14.01,2013-09-09 23:46:00,
2013-09-09 17:51:00,56.1,49.3,29.77,SSE,154,0.0,0.0,78,0.00,,---,0.02,VWS V14.01,2013-09-09 23:51:00,
2013-09-09 17:56:00,56.0,49.6,29.77,SSE,154,0.0,1.0,79,0.00,,---,0.02,VWS V14.01,2013-09-09 23:56:00,
2013-09-09 18:01:00,55.9,49.5,29.77,SSE,154,0.0,0.0,79,0.00,,---,0.02,VWS V14.01,2013-09-10 00:01:00,
2013-09-09 18:06:00,55.9,49.5,29.77,SSE,154,0.0,0.0,79,0.00,,---,0.02,VWS V14.01,2013-09-10 00:06:00,
2013-09-09 18:11:00,55.9,49.8,29.77,SSE,154,0.0,0.0,80,0.00,,---,0.02,VWS V14.01,2013-09-10 00:11:00,
2013-09-09 18:16:00,55.9,49.8,29.77,SSE,154,2.0,3.0,80,0.00,,---,0.02,VWS V14.01,2013-09-10 00:16:00,
2013-09-09 18:21:00,55.8,49.7,29.77,SSE,154,3.0,4.0,80,0.00,,---,0.02,VWS V14.01,2013-09-10 00:21:00,
2013-09-09 18:26:00,55.8,49.7,29.77,SSE,154,0.0,0.0,80,0.00,,---,0.02,VWS V14.01,2013-09-10 00:26:00,
2013-09-09 18:31:00,55.7,49.3,29.77,SSE,154,0.0,1.0,79,0.00,,---,0.02,VWS V14.01,2013-09-10 00:31:00,
2013-09-09 18:36:00,55.5,49.4,29.77,SSE,153,2.0,4.0,80,0.00,,---,0.02,VWS V14.01,2013-09-10 00:36:00,
2013-09-09 18:41:00,55.5,49.8,29.77,SSE,161,2.0,5.0,81,0.00,,---,0.02,VWS V14.01,2013-09-10 00:41:00,
2013-09-09 18:46:00,55.3,49.2,29.77,WSW,251,6.0,8.0,80,0.00,,---,0.02,VWS V14.01,2013-09-10 00:46:00,
2013-09-09 18:52:00,55.0,49.0,29.77,SW,217,5.0,10.0,80,0.00,,---,0.02,VWS V14.01,2013-09-10 00:52:00,
2013-09-09 18:57:00,54.7,48.7,29.78,SW,224,12.0,13.0,80,0.00,,---,0.02,VWS V14.01,2013-09-10 00:57:00,
2013-09-09 19:02:00,54.4,48.4,29.78,WSW,249,11.0,11.0,80,0.00,,---,0.02,VWS V14.01,2013-09-10 01:02:00,
2013-09-09 19:07:00,54.1,48.1,29.78,SSW,210,9.0,13.0,80,0.00,,---,0.02,VWS V14.01,2013-09-10 01:07:00,
2013-09-09 19:12:00,53.8,47.8,29.79,SW,218,11.0,13.0,80,0.00,,---,0.02,VWS V14.01,2013-09-10 01:12:00,
2013-09-09 19:17:00,53.4,47.7,29.79,SSW,205,15.0,16.0,81,0.00,,---,0.02,VWS V14.01,2013-09-10 01:17:00,
2013-09-09 19:22:00,52.9,47.9,29.79,SW,221,10.0,13.0,83,0.00,,---,0.02,VWS V14.01,2013-09-10 01:22:00,
2013-09-09 19:27:00,52.3,47.9,29.79,WSW,250,7.0,13.0,85,0.00,,---,0.02,VWS V14.01,2013-09-10 01:27:00,
2013-09-09 19:32:00,52.0,48.3,29.79,WNW,289,4.0,6.0,87,0.00,,---,0.02,VWS V14.01,2013-09-10 01:32:00,
2013-09-09 19:37:00,51.9,48.2,29.79,West,263,4.0,6.0,87,0.00,,---,0.02,VWS V14.01,2013-09-10 01:37:00,
2013-09-09 19:42:00,51.9,48.2,29.78,West,263,0.0,0.0,87,0.00,,---,0.02,VWS V14.01,2013-09-10 01:42:00,
2013-09-09 19:47:00,51.9,48.2,29.78,West,264,0.0,0.0,87,0.00,,---,0.02,VWS V14.01,2013-09-10 01:47:00,
2013-09-09 19:52:00,51.8,48.1,29.79,WSW,250,5.0,7.0,87,0.00,,---,0.02,VWS V14.01,2013-09-10 01:52:00,
2013-09-09 19:57:00,51.8,49.5,29.80,SW,222,5.0,6.0,92,0.00,,---,0.02,VWS V14.01,2013-09-10 01:57:00,
2013-09-09 20:02:00,51.8,48.7,29.80,SW,222,3.0,3.0,89,0.00,,---,0.02,VWS V14.01,2013-09-10 02:02:00,
2013-09-09 20:07:00,51.7,48.6,29.80,SW,224,5.0,5.0,89,0.00,,---,0.02,VWS V14.01,2013-09-10 02:07:00,
2013-09-09 20:12:00,51.6,48.2,29.80,SW,225,4.0,6.0,88,0.00,,---,0.02,VWS V14.01,2013-09-10 02:12:00,
2013-09-09 20:17:00,51.6,48.2,29.80,SW,225,0.0,3.0,88,0.00,,---,0.02,VWS V14.01,2013-09-10 02:17:00,
2013-09-09 20:22:00,51.6,48.2,29.80,SW,225,0.0,1.0,88,0.00,,---,0.02,VWS V14.01,2013-09-10 02:22:00,
2013-09-09 20:27:00,51.5,47.8,29.80,SW,225,0.0,0.0,87,0.00,,---,0.02,VWS V14.01,2013-09-10 02:27:00,
2013-09-09 20:32:00,51.6,47.9,29.80,SW,225,0.0,3.0,87,0.00,,---,0.02,VWS V14.01,2013-09-10 02:32:00,
2013-09-09 20:37:00,51.8,48.1,29.81,SW,225,0.0,0.0,87,0.00,,---,0.02,VWS V14.01,2013-09-10 02:37:00,
2013-09-09 20:42:00,51.8,48.1,29.81,SW,225,0.0,0.0,87,0.00,,---,0.02,VWS V14.01,2013-09-10 02:42:00,
2013-09-09 20:47:00,51.8,48.1,29.82,SW,225,0.0,4.0,87,0.00,,---,0.02,VWS V14.01,2013-09-10 02:47:00,
2013-09-09 20:52:00,51.8,47.8,29.82,SW,225,0.0,0.0,86,0.00,,---,0.02,VWS V14.01,2013-09-10 02:52:00,
2013-09-09 20:57:00,51.8,47.8,29.81,SW,225,0.0,0.0,86,0.00,,---,0.02,VWS V14.01,2013-09-10 02:57:00,
2013-09-09 21:02:00,51.8,47.8,29.82,SW,225,0.0,2.0,86,0.00,,---,0.02,VWS V14.01,2013-09-10 03:02:00,
2013-09-09 21:07:00,51.9,48.2,29.82,SSW,200,8.0,8.0,87,0.00,,---,0.02,VWS V14.01,2013-09-10 03:07:00,
2013-09-09 21:12:00,51.8,48.1,29.82,SSW,202,3.0,5.0,87,0.00,,---,0.02,VWS V14.01,2013-09-10 03:12:00,
2013-09-09 21:17:00,51.8,48.4,29.82,SSW,202,0.0,0.0,88,0.00,,---,0.02,VWS V14.01,2013-09-10 03:17:00,
2013-09-09 21:22:00,51.7,48.3,29.83,SSW,202,0.0,0.0,88,0.00,,---,0.02,VWS V14.01,2013-09-10 03:22:00,
2013-09-09 21:27:00,51.5,48.1,29.83,SSW,202,0.0,0.0,88,0.00,,---,0.02,VWS V14.01,2013-09-10 03:27:00,
2013-09-09 21:32:00,51.4,48.3,29.83,SSW,202,0.0,0.0,89,0.00,,---,0.02,VWS V14.01,2013-09-10 03:32:00,
2013-09-09 21:37:00,51.2,48.1,29.83,SSW,202,0.0,0.0,89,0.00,,---,0.02,VWS V14.01,2013-09-10 03:37:00,
2013-09-09 21:42:00,51.1,48.0,29.83,SSW,202,0.0,0.0,89,0.00,,---,0.02,VWS V14.01,2013-09-10 03:42:00,
2013-09-09 21:47:00,51.0,47.9,29.84,SSW,202,4.0,4.0,89,0.00,,---,0.02,VWS V14.01,2013-09-10 03:47:00,
2013-09-09 21:52:00,51.0,48.2,29.83,SSW,200,3.0,4.0,90,0.00,,---,0.02,VWS V14.01,2013-09-10 03:52:00,
2013-09-09 21:57:00,51.1,48.3,29.83,East,98,5.0,5.0,90,0.00,,---,0.02,VWS V14.01,2013-09-10 03:57:00,
2013-09-09 22:01:00,51.3,48.5,29.83,SSE,147,0.0,0.0,90,0.00,,---,0.02,VWS V14.01,2013-09-10 04:01:00,
2013-09-09 22:03:00,51.3,48.5,29.83,SSE,147,0.0,1.0,90,0.00,,---,0.02,VWS V14.01,2013-09-10 04:03:00,
2013-09-09 22:08:00,51.3,48.5,29.83,WNW,301,4.0,5.0,90,0.00,,---,0.02,VWS V14.01,2013-09-10 04:08:00,
2013-09-09 22:13:00,51.3,48.5,29.83,WNW,294,3.0,4.0,90,0.00,,---,0.02,VWS V14.01,2013-09-10 04:13:00,
2013-09-09 22:18:00,51.2,48.4,29.83,WNW,294,4.0,4.0,90,0.00,,---,0.02,VWS V14.01,2013-09-10 04:18:00,
2013-09-09 22:23:00,51.1,48.3,29.83,WNW,296,6.0,6.0,90,0.00,,---,0.02,VWS V14.01,2013-09-10 04:23:00,
2013-09-09 22:28:00,51.0,48.2,29.82,North,355,7.0,7.0,90,0.00,,---,0.02,VWS V14.01,2013-09-10 04:28:00,
2013-09-09 22:33:00,51.1,48.0,29.82,NNW,345,5.0,7.0,89,0.00,,---,0.02,VWS V14.01,2013-09-10 04:33:00,
2013-09-09 22:38:00,51.2,48.1,29.82,NNW,346,5.0,5.0,89,0.00,,---,0.02,VWS V14.01,2013-09-10 04:38:00,
2013-09-09 22:43:00,51.2,48.4,29.83,NNW,329,0.0,1.0,90,0.00,,---,0.02,VWS V14.01,2013-09-10 04:43:00,
2013-09-09 22:48:00,51.2,48.4,29.84,NNW,329,0.0,0.0,90,0.00,,---,0.02,VWS V14.01,2013-09-10 04:48:00,
2013-09-09 22:53:00,51.1,48.3,29.83,NNW,329,0.0,0.0,90,0.00,,---,0.02,VWS V14.01,2013-09-10 04:53:00,
2013-09-09 22:58:00,51.0,48.2,29.84,NNW,329,2.0,2.0,90,0.00,,---,0.02,VWS V14.01,2013-09-10 04:58:00,
2013-09-09 23:03:00,50.8,48.0,29.84,NNW,329,0.0,1.0,90,0.00,,---,0.02,VWS V14.01,2013-09-10 05:03:00,
2013-09-09 23:08:00,50.7,47.9,29.84,NNW,329,0.0,0.0,90,0.00,,---,0.02,VWS V14.01,2013-09-10 05:08:00,
2013-09-09 23:13:00,50.5,47.7,29.84,NNW,329,0.0,0.0,90,0.00,,---,0.02,VWS V14.01,2013-09-10 05:13:00,
2013-09-09 23:18:00,50.4,47.6,29.84,NNW,329,0.0,0.0,90,0.00,,---,0.02,VWS V14.01,2013-09-10 05:18:00,
2013-09-09 23:23:00,50.1,47.3,29.84,NNW,329,3.0,4.0,90,0.00,,---,0.02,VWS V14.01,2013-09-10 05:23:00,
2013-09-09 23:28:00,50.1,47.6,29.85,NNW,329,0.0,0.0,91,0.00,,---,0.02,VWS V14.01,2013-09-10 05:28:00,
2013-09-09 23:33:00,50.1,47.6,29.85,NNW,329,0.0,0.0,91,0.00,,---,0.02,VWS V14.01,2013-09-10 05:33:00,
2013-09-09 23:38:00,50.1,47.9,29.85,NNW,329,0.0,0.0,92,0.00,,---,0.02,VWS V14.01,2013-09-10 05:38:00,
2013-09-09 23:43:00,50.0,48.6,29.86,NNW,329,3.0,3.0,95,0.00,,---,0.02,VWS V14.01,2013-09-10 05:43:00,
2013-09-09 23:48:00,49.9,47.7,29.86,NNW,329,0.0,0.0,92,0.00,,---,0.02,VWS V14.01,2013-09-10 05:48:00,
2013-09-09 23:53:00,49.9,47.7,29.85,NNW,329,0.0,0.0,92,0.00,,---,0.02,VWS V14.01,2013-09-10 05:53:00,
2013-09-09 23:58:00,49.9,47.7,29.85,NNW,329,0.0,0.0,92,0.00,,---,0.02,VWS V14.01,2013-09-10 05:58:00,